Find Starlink 3629

NORAD ID: 51774 Int'l Des: 2022-017 Owner: SPXS Country: US Constellation: starlink operational
LEOCIRCULAR

Live Position

Loading 3D Globe...

About Starlink 3629

Description loading...

Upcoming Passes

Passes for default location (London). Set your location on the main map for personalized predictions.

Altitude History

Loading altitude history...

Two-Line Element Set

1 51774U 22017G 26127.15133019 -.00002849 00000-0 -16108-3 0 9991
2 51774 53.2166 76.6804 0001194 75.4207 284.6917 15.08818405231395
Epoch: May 7, 2026 • Age: 14 hours

Current Status

Altitude 542.3 km
Velocity 7.59 km/s
Sub-Earth Point -9.21°S, 66.84°W
Launch Date Feb 25, 2022
Age 4.1 years
Type internet

Technical Details

Classification Payload
Mass 297.00 kg
Dry Mass 275.00 kg
Total Mass 297.00 kg
Length 0.20 m
Diameter 2.80 m
Span 9.00 m
Shape Box + pan
Manufacturer SPXS
Bus Type Starlink
Phase Status In Orbit
Owner/State SPXS/US

Most Searched